Hourly Data Report for March 02, 2003

TORONTO CITY
ONTARIO

43°40'00.000" N
79°24'00.000" W
112.50 m
6158355
71508
XTO

Download Data

Hourly Data (March 2003)
Hourly Data Report for March 2, 2003
TIME
LST
Temp Definition
°C
Dew Point Definition
°C
Rel Hum Definition
%
Precip. Amount Definition
mm

Wind Dir Definition
10's deg

Wind Spd Definition
km/h
Visibility Definition
km
Stn Press Definition
kPa
Hmdx Definition


Wind Chill Definition


Weather Definition


00:00 1.2 -0.7 87   LegendMM LegendMM LegendMM 99.71     LegendNANA
01:00 0.9 -0.8 88   LegendMM LegendMM LegendMM 99.60     LegendNANA
02:00 0.5 -0.4 94   LegendMM LegendMM LegendMM 99.46     LegendNANA
03:00 0.5 -0.3 94   LegendMM LegendMM LegendMM 99.32     LegendNANA
04:00 0.4 -0.3 95   LegendMM LegendMM LegendMM 99.16     LegendNANA
05:00 0.4 -0.1 96   LegendMM LegendMM LegendMM 99.09     LegendNANA
06:00 0.5 0.2 98   LegendMM LegendMM LegendMM 99.01     LegendNANA
07:00 0.6 0.3 98   LegendMM LegendMM LegendMM 98.95     LegendNANA
08:00 0.7 0.3 97   LegendMM LegendMM LegendMM 98.98     LegendNANA
09:00 1.2 0.6 96   LegendMM LegendMM LegendMM 98.96     LegendNANA
10:00 1.6 -0.4 87   LegendMM LegendMM LegendMM 98.95     LegendNANA
11:00 2.4 -1.7 74   LegendMM LegendMM LegendMM 98.94     LegendNANA
12:00 2.4 -2.4 71   LegendMM LegendMM LegendMM 98.92     LegendNANA
13:00 3.0 -2.8 66   LegendMM LegendMM LegendMM 98.86     LegendNANA
14:00 2.7 -2.3 70   LegendMM LegendMM LegendMM 98.82     LegendNANA
15:00 -0.6 -6.4 65   LegendMM LegendMM LegendMM 98.95     LegendNANA
16:00 -5.5 -10.6 67   LegendMM LegendMM LegendMM 99.12     LegendNANA
17:00 -9.6 -14.9 65   LegendMM LegendMM LegendMM 99.28     LegendNANA
18:00 -12.7 -18.2 63   LegendMM LegendMM LegendMM 99.49     LegendNANA
19:00 -14.7 -21.2 58   LegendMM LegendMM LegendMM 99.69     LegendNANA
20:00 -15.3 -21.0 62   LegendMM LegendMM LegendMM 99.79     LegendNANA
21:00 -15.6 -21.1 63   LegendMM LegendMM LegendMM 99.97     LegendNANA
22:00 -16.1 -21.6 63   LegendMM LegendMM LegendMM 100.11     LegendNANA
23:00 -16.7 -23.9 54   LegendMM LegendMM LegendMM 100.22     LegendNANA

Notes on Data Quality.

Legend

  • E = Estimated
  • M = Missing
  • NA = Not Available*
  • [empty] = Indicates an unobserved value
Date modified: